| time (UTC) | temp C | wind direction | speed KPH | gust KPH | rain 1hr cm | rain 24hr cm | rain mn cm | humidity % | barometer mb |
| 20260902213011 | 16 | 325 | 1.6 | 4.8 | 0.00 | 0.00 | 0.00 | 68 | 1021.0 |
| 20260902212011 | 16 | 325 | 0.0 | 0.0 | 0.00 | 0.00 | 0.00 | 68 | 1021.1 |
| 20260902211011 | 17 | 325 | 1.6 | 4.8 | 0.00 | 0.00 | 0.00 | 68 | 1021.0 |
| 20260902210011 | 17 | 325 | 1.6 | 4.8 | 0.00 | 0.00 | 0.00 | 68 | 1021.0 |
| 20260902205011 | 17 | 325 | 3.2 | 4.8 | 0.00 | 0.00 | 0.00 | 68 | 1020.9 |
| 20260902204011 | 17 | 325 | 3.2 | 4.8 | 0.00 | 0.00 | 0.00 | 67 | 1020.8 |
| 20260902203010 | 17 | 325 | 3.2 | 4.8 | 0.00 | 0.00 | 0.00 | 66 | 1020.8 |
| 20260902202010 | 17 | 325 | 1.6 | 4.8 | 0.00 | 0.00 | 0.00 | 66 | 1020.7 |
| 20260902201010 | 17 | 325 | 1.6 | 4.8 | 0.00 | 0.00 | 0.00 | 66 | 1020.5 |
| 20260902200010 | 17 | 325 | 0.0 | 3.2 | 0.00 | 0.00 | 0.00 | 65 | 1020.5 |
| 20260902195010 | 17 | 325 | 1.6 | 4.8 | 0.00 | 0.00 | 0.00 | 64 | 1020.5 |
| 20260902194010 | 17 | 325 | 3.2 | 4.8 | 0.00 | 0.00 | 0.00 | 65 | 1020.5 |
| 20260902193010 | 18 | 325 | 3.2 | 4.8 | 0.00 | 0.00 | 0.00 | 64 | 1020.4 |
| 20260902192010 | 18 | 325 | 0.0 | 4.8 | 0.00 | 0.00 | 0.00 | 63 | 1020.5 |
| 20260902191010 | 18 | 325 | 0.0 | 0.0 | 0.00 | 0.00 | 0.00 | 62 | 1020.4 |
| 20260902190010 | 18 | 325 | 0.0 | 0.0 | 0.00 | 0.00 | 0.00 | 61 | 1020.2 |
| 20260902185010 | 18 | 325 | 0.0 | 0.0 | 0.00 | 0.00 | 0.00 | 60 | 1020.2 |
| 20260902184010 | 19 | 325 | 1.6 | 3.2 | 0.00 | 0.00 | 0.00 | 59 | 1020.0 |
| 20260902183010 | 19 | 325 | 1.6 | 3.2 | 0.00 | 0.00 | 0.00 | 58 | 1019.9 |
| 20260902182010 | 20 | 325 | 0.0 | 0.0 | 0.00 | 0.00 | 0.00 | 57 | 1019.8 |
| 20260902181010 | 20 | 325 | 0.0 | 0.0 | 0.00 | 0.00 | 0.00 | 56 | 1019.7 |
| 20260902180011 | 20 | 325 | 1.6 | 3.2 | 0.00 | 0.00 | 0.00 | 55 | 1019.6 |
| 20260902175010 | 21 | 325 | 0.0 | 3.2 | 0.00 | 0.00 | 0.00 | 55 | 1019.5 |
| 20260902174010 | 21 | 325 | 3.2 | 6.4 | 0.00 | 0.00 | 0.00 | 54 | 1019.5 |
| 20260902173009 | 21 | 321 | 3.2 | 8.0 | 0.00 | 0.00 | 0.00 | 53 | 1019.4 |
| 20260902172010 | 21 | 321 | 3.2 | 8.0 | 0.00 | 0.00 | 0.00 | 53 | 1019.4 |
| 20260902171010 | 22 | 299 | 6.4 | 12.9 | 0.00 | 0.00 | 0.00 | 53 | 1019.4 |
| 20260902170011 | 21 | 263 | 6.4 | 14.5 | 0.00 | 0.00 | 0.00 | 54 | 1019.4 |
| 20260902165010 | 21 | 304 | 4.8 | 12.9 | 0.00 | 0.00 | 0.00 | 54 | 1019.4 |
| 20260902164009 | 22 | 294 | 4.8 | 14.5 | 0.00 | 0.00 | 0.00 | 53 | 1019.3 |
| 20260902163011 | 22 | 275 | 9.7 | 17.7 | 0.00 | 0.00 | 0.00 | 54 | 1019.3 |
| 20260902162009 | 22 | 263 | 4.8 | 11.3 | 0.00 | 0.00 | 0.00 | 53 | 1019.4 |
| 20260902161009 | 22 | 268 | 4.8 | 11.3 | 0.00 | 0.00 | 0.00 | 53 | 1019.3 |
| 20260902160011 | 22 | 268 | 4.8 | 11.3 | 0.00 | 0.00 | 0.00 | 53 | 1019.3 |
| 20260902155010 | 22 | 267 | 3.2 | 16.1 | 0.00 | 0.00 | 0.00 | 52 | 1019.4 |
| 20260902154009 | 22 | 255 | 4.8 | 14.5 | 0.00 | 0.00 | 0.00 | 53 | 1019.5 |
| 20260902153015 | 22 | 255 | 3.2 | 14.5 | 0.00 | 0.00 | 0.00 | 53 | 1019.5 |
| 20260902152013 | 23 | 268 | 8.0 | 17.7 | 0.00 | 0.00 | 0.00 | 52 | 1019.5 |
| 20260902151013 | 23 | 242 | 8.0 | 24.1 | 0.00 | 0.00 | 0.00 | 52 | 1019.5 |
| 20260902150014 | 23 | 238 | 3.2 | 8.0 | 0.00 | 0.00 | 0.00 | 52 | 1019.4 |
| 20260902145013 | 23 | 273 | 3.2 | 9.7 | 0.00 | 0.00 | 0.00 | 49 | 1019.4 |
| 20260902144013 | 23 | 230 | 4.8 | 11.3 | 0.00 | 0.00 | 0.00 | 50 | 1019.5 |
| 20260902143013 | 24 | 239 | 4.8 | 11.3 | 0.00 | 0.00 | 0.00 | 49 | 1019.5 |
| 20260902142013 | 24 | 225 | 6.4 | 16.1 | 0.00 | 0.00 | 0.00 | 47 | 1019.6 |
| 20260902141013 | 25 | 290 | 8.0 | 20.9 | 0.00 | 0.00 | 0.00 | 48 | 1019.6 |
| 20260902140013 | 25 | 221 | 6.4 | 16.1 | 0.00 | 0.00 | 0.00 | 51 | 1019.5 |
| 20260902135013 | 24 | 289 | 6.4 | 12.9 | 0.00 | 0.00 | 0.00 | 48 | 1019.6 |
| 20260902134013 | 25 | 277 | 4.8 | 12.9 | 0.00 | 0.00 | 0.00 | 47 | 1019.6 |
| 20260902133013 | 23 | 153 | 6.4 | 14.5 | 0.00 | 0.00 | 0.00 | 50 | 1019.6 |
| 20260902132013 | 23 | 275 | 8.0 | 17.7 | 0.00 | 0.00 | 0.00 | 50 | 1019.7 |
| 20260902131013 | 23 | 274 | 6.4 | 14.5 | 0.00 | 0.00 | 0.00 | 51 | 1019.7 |
| 20260902130013 | 23 | 231 | 4.8 | 11.3 | 0.00 | 0.00 | 0.00 | 49 | 1019.9 |
| 20260902125012 | 23 | 260 | 3.2 | 9.7 | 0.00 | 0.00 | 0.00 | 52 | 1019.8 |
| 20260902124012 | 23 | 262 | 6.4 | 12.9 | 0.00 | 0.00 | 0.00 | 53 | 1019.9 |
| 20260902123013 | 24 | 261 | 1.6 | 6.4 | 0.00 | 0.00 | 0.00 | 53 | 1020.0 |
| 20260902122013 | 23 | 254 | 1.6 | 6.4 | 0.00 | 0.00 | 0.00 | 52 | 1020.0 |
| 20260902121013 | 23 | 255 | 1.6 | 6.4 | 0.00 | 0.00 | 0.00 | 53 | 1020.1 |
| 20260902120012 | 22 | 339 | 4.8 | 12.9 | 0.00 | 0.00 | 0.00 | 55 | 1020.2 |
| 20260902115012 | 22 | 312 | 4.8 | 12.9 | 0.00 | 0.00 | 0.00 | 53 | 1020.4 |
| 20260902114012 | 23 | 250 | 4.8 | 11.3 | 0.00 | 0.00 | 0.00 | 52 | 1020.4 |
| 20260902113012 | 24 | 132 | 4.8 | 11.3 | 0.00 | 0.00 | 0.00 | 51 | 1020.6 |
| 20260902112012 | 24 | 138 | 4.8 | 11.3 | 0.00 | 0.00 | 0.00 | 52 | 1020.6 |
| 20260902111012 | 23 | 290 | 4.8 | 12.9 | 0.00 | 0.00 | 0.00 | 50 | 1020.7 |
| 20260902110012 | 23 | 180 | 4.8 | 11.3 | 0.00 | 0.00 | 0.00 | 50 | 1020.9 |
| 20260902105012 | 23 | 153 | 3.2 | 8.0 | 0.00 | 0.00 | 0.00 | 59 | 1021.0 |
| 20260902104012 | 22 | 139 | 3.2 | 8.0 | 0.00 | 0.00 | 0.00 | 62 | 1021.2 |
| 20260902103012 | 22 | 197 | 4.8 | 8.0 | 0.00 | 0.00 | 0.00 | 62 | 1021.3 |
| 20260902102012 | 21 | 132 | 3.2 | 11.3 | 0.00 | 0.00 | 0.00 | 64 | 1021.4 |
| 20260902101012 | 21 | 90 | 1.6 | 6.4 | 0.00 | 0.00 | 0.00 | 64 | 1021.5 |
| 20260902100012 | 20 | 80 | 0.0 | 4.8 | 0.00 | 0.00 | 0.00 | 69 | 1021.6 |
| 20260902095012 | 20 | 78 | 0.0 | 1.6 | 0.00 | 0.00 | 0.00 | 71 | 1021.7 |
| 20260902094012 | 19 | 78 | 0.0 | 3.2 | 0.00 | 0.00 | 0.00 | 71 | 1021.6 |
| 20260902093012 | 19 | 79 | 1.6 | 6.4 | 0.00 | 0.00 | 0.00 | 74 | 1021.7 |
| 20260902092011 | 18 | 79 | 3.2 | 6.4 | 0.00 | 0.00 | 0.00 | 75 | 1021.7 |
| 20260902091011 | 18 | 79 | 3.2 | 6.4 | 0.00 | 0.00 | 0.00 | 74 | 1021.7 |
| 20260902090011 | 18 | 78 | 4.8 | 6.4 | 0.00 | 0.00 | 0.00 | 74 | 1021.7 |
| 20260902085011 | 18 | 82 | 4.8 | 8.0 | 0.00 | 0.00 | 0.00 | 76 | 1021.6 |
| 20260902084011 | 17 | 80 | 3.2 | 6.4 | 0.00 | 0.00 | 0.00 | 77 | 1021.6 |
| 20260902083011 | 17 | 80 | 3.2 | 6.4 | 0.00 | 0.00 | 0.00 | 78 | 1021.5 |
| 20260902082012 | 17 | 80 | 3.2 | 4.8 | 0.00 | 0.00 | 0.00 | 80 | 1021.6 |
| 20260902081011 | 16 | 80 | 3.2 | 6.4 | 0.00 | 0.00 | 0.00 | 83 | 1021.4 |
| 20260902080011 | 16 | 81 | 3.2 | 6.4 | 0.00 | 0.00 | 0.00 | 84 | 1021.4 |
| 20260902075011 | 16 | 80 | 3.2 | 6.4 | 0.00 | 0.00 | 0.00 | 83 | 1021.4 |
| 20260902074012 | 15 | 80 | 3.2 | 6.4 | 0.00 | 0.00 | 0.00 | 85 | 1021.3 |
| 20260902073011 | 15 | 80 | 3.2 | 6.4 | 0.00 | 0.00 | 0.00 | 85 | 1021.2 |
| 20260902072012 | 15 | 80 | 3.2 | 6.4 | 0.00 | 0.00 | 0.00 | 86 | 1021.1 |
| 20260902071011 | 14 | 80 | 3.2 | 6.4 | 0.00 | 0.00 | 0.00 | 87 | 1021.2 |
| 20260902070011 | 13 | 80 | 3.2 | 6.4 | 0.00 | 0.00 | 0.00 | 88 | 1021.2 |
| 20260902065011 | 13 | 79 | 3.2 | 4.8 | 0.00 | 0.00 | 0.00 | 88 | 1021.3 |
| 20260902064011 | 13 | 78 | 1.6 | 4.8 | 0.00 | 0.00 | 0.00 | 90 | 1021.1 |
| 20260902063011 | 12 | 78 | 1.6 | 6.4 | 0.00 | 0.00 | 0.00 | 91 | 1021.2 |
| 20260902062011 | 12 | 78 | 3.2 | 6.4 | 0.00 | 0.00 | 0.00 | 92 | 1021.2 |
| 20260902061011 | 12 | 75 | 3.2 | 6.4 | 0.00 | 0.00 | 0.00 | 92 | 1021.1 |
| 20260902060011 | 11 | 69 | 3.2 | 6.4 | 0.00 | 0.00 | 0.00 | 92 | 1021.1 |
| 20260902055012 | 11 | 68 | 3.2 | 6.4 | 0.00 | 0.00 | 0.00 | 92 | 1021.2 |
| 20260902054012 | 11 | 67 | 0.0 | 3.2 | 0.00 | 0.00 | 0.00 | 92 | 1021.3 |
| 20260902053011 | 10 | 67 | 0.0 | 1.6 | 0.00 | 0.00 | 0.00 | 92 | 1021.2 |
| 20260902052011 | 10 | 222 | 0.0 | 0.0 | 0.00 | 0.00 | 0.00 | 92 | 1021.2 |
| 20260902051010 | 10 | 222 | 0.0 | 0.0 | 0.00 | 0.00 | 0.00 | 91 | 1021.2 |
| 20260902050011 | 10 | 259 | 0.0 | 0.0 | 0.00 | 0.00 | 0.00 | 91 | 1021.2 |
| 20260902045011 | 10 | 259 | 0.0 | 0.0 | 0.00 | 0.00 | 0.00 | 91 | 1021.1 |
| 20260902044011 | 10 | 259 | 0.0 | 0.0 | 0.00 | 0.00 | 0.00 | 91 | 1021.1 |
| 20260902043020 | 10 | 259 | 0.0 | 0.0 | 0.00 | 0.00 | 0.00 | 90 | 1021.1 |
| 20260902042010 | 10 | 259 | 0.0 | 0.0 | 0.00 | 0.00 | 0.00 | 89 | 1021.1 |
| 20260902041010 | 10 | 259 | 0.0 | 0.0 | 0.00 | 0.00 | 0.00 | 89 | 1021.1 |
| 20260902040011 | 10 | 259 | 0.0 | 0.0 | 0.00 | 0.00 | 0.00 | 89 | 1021.1 |
| 20260902035015 | 10 | 259 | 0.0 | 0.0 | 0.00 | 0.00 | 0.00 | 89 | 1021.1 |
| 20260902034014 | 10 | 259 | 0.0 | 0.0 | 0.00 | 0.00 | 0.00 | 89 | 1021.2 |
| 20260902033014 | 10 | 259 | 0.0 | 0.0 | 0.00 | 0.00 | 0.00 | 89 | 1021.2 |
| 20260902032015 | 10 | 259 | 0.0 | 0.0 | 0.00 | 0.00 | 0.00 | 88 | 1021.1 |
| 20260902031015 | 10 | 259 | 0.0 | 0.0 | 0.00 | 0.00 | 0.00 | 88 | 1021.1 |
| 20260902030014 | 11 | 259 | 0.0 | 0.0 | 0.00 | 0.00 | 0.00 | 88 | 1021.2 |
| 20260902025014 | 11 | 259 | 0.0 | 0.0 | 0.00 | 0.00 | 0.00 | 88 | 1021.2 |
| 20260902024014 | 11 | 259 | 0.0 | 0.0 | 0.00 | 0.00 | 0.00 | 88 | 1021.3 |
| 20260902023014 | 11 | 259 | 0.0 | 0.0 | 0.00 | 0.00 | 0.00 | 86 | 1021.2 |
| 20260902022014 | 11 | 259 | 0.0 | 0.0 | 0.00 | 0.00 | 0.00 | 85 | 1021.3 |
| 20260902021014 | 11 | 259 | 0.0 | 0.0 | 0.00 | 0.00 | 0.00 | 85 | 1021.4 |
| 20260902020014 | 11 | 259 | 0.0 | 0.0 | 0.00 | 0.00 | 0.00 | 85 | 1021.3 |
| 20260902015014 | 11 | 259 | 0.0 | 0.0 | 0.00 | 0.00 | 0.00 | 85 | 1021.4 |
| 20260902014014 | 11 | 259 | 0.0 | 0.0 | 0.00 | 0.00 | 0.00 | 84 | 1021.3 |
| 20260902013013 | 11 | 259 | 0.0 | 0.0 | 0.00 | 0.00 | 0.00 | 83 | 1021.3 |
| 20260902012014 | 11 | 259 | 0.0 | 0.0 | 0.00 | 0.00 | 0.00 | 83 | 1021.3 |
| 20260902011014 | 11 | 259 | 0.0 | 0.0 | 0.00 | 0.00 | 0.00 | 81 | 1021.2 |
| 20260902010014 | 11 | 259 | 0.0 | 0.0 | 0.00 | 0.00 | 0.00 | 81 | 1021.4 |
| 20260902005013 | 11 | 259 | 0.0 | 0.0 | 0.00 | 0.00 | 0.00 | 79 | 1021.3 |
| 20260902004013 | 11 | 259 | 0.0 | 0.0 | 0.00 | 0.00 | 0.00 | 77 | 1021.3 |
| 20260902003013 | 11 | 259 | 0.0 | 0.0 | 0.00 | 0.00 | 0.00 | 77 | 1021.3 |
| 20260902002013 | 12 | 259 | 0.0 | 0.0 | 0.00 | 0.00 | 0.00 | 76 | 1021.3 |
| 20260902001013 | 12 | 259 | 0.0 | 0.0 | 0.00 | 0.00 | 0.00 | 76 | 1021.4 |
| 20260902000013 | 12 | 259 | 0.0 | 0.0 | 0.00 | 0.00 | 0.00 | 75 | 1021.4 |
| 20260901235013 | 12 | 259 | 0.0 | 0.0 | 0.00 | 0.00 | 0.00 | 75 | 1021.4 |
| 20260901234013 | 12 | 259 | 0.0 | 0.0 | 0.00 | 0.00 | 0.00 | 75 | 1021.3 |
| 20260901233013 | 12 | 259 | 0.0 | 0.0 | 0.00 | 0.00 | 0.00 | 74 | 1021.3 |
| 20260901232013 | 12 | 259 | 0.0 | 0.0 | 0.00 | 0.00 | 0.00 | 74 | 1021.3 |
| 20260901231013 | 13 | 259 | 0.0 | 0.0 | 0.00 | 0.00 | 0.00 | 73 | 1021.3 |
| 20260901230013 | 13 | 259 | 0.0 | 0.0 | 0.00 | 0.00 | 0.00 | 73 | 1021.3 |
| 20260901225013 | 13 | 259 | 0.0 | 0.0 | 0.00 | 0.00 | 0.00 | 73 | 1021.4 |
| 20260901224013 | 13 | 259 | 0.0 | 0.0 | 0.00 | 0.00 | 0.00 | 72 | 1021.3 |
| 20260901223013 | 13 | 259 | 0.0 | 0.0 | 0.00 | 0.00 | 0.00 | 72 | 1021.2 |
| 20260901222012 | 13 | 259 | 0.0 | 0.0 | 0.00 | 0.00 | 0.00 | 71 | 1021.2 |
| 20260901221013 | 13 | 259 | 0.0 | 0.0 | 0.00 | 0.00 | 0.00 | 71 | 1021.3 |
| 20260901220013 | 13 | 259 | 0.0 | 0.0 | 0.00 | 0.00 | 0.00 | 71 | 1021.2 |
| 20260901215013 | 13 | 259 | 0.0 | 0.0 | 0.00 | 0.00 | 0.00 | 71 | 1021.3 |
| 20260901214012 | 14 | 259 | 0.0 | 0.0 | 0.00 | 0.00 | 0.00 | 70 | 1021.2 |